Brookhaven, MS

6:36 AM CDT on April 23, 2017 (GMT -0500)
Brookhaven

Weather History for K1R7 - January, 2013

Change the Weather History Date:

Monday, January 14, 2013

  Actual Average (KMCB) Record (KMCB)
Temperature  
Mean Temperature 38 °F -  
Max Temperature 42 °F 56 °F 75 °F (1971)
Min Temperature 33 °F 34 °F 17 °F (1964)
Degree Days  
Heating Degree Days 28    
Moisture  
Dew Point 38 °F    
Average Humidity 97    
Maximum Humidity 100    
Minimum Humidity 87    
Precipitation  
Precipitation 0.86 in - - ()
Sea Level Pressure  
Sea Level Pressure 30.16 in    
Wind  
Wind Speed 8 mph (North)    
Max Wind Speed 13 mph    
Max Gust Speed 23 mph    
Visibility 6 miles    
Events Rain , Thunderstorm    
Averages and records for this station are not official NWS values.
T = Trace of Precipitation, MM = Missing Value Source: NWS Daily Summary

Daily Weather History Graph

Daily Weather History Graph

Search for Another Location

Airport or City:

Trip Planner

Search our weather history database for the weather conditions in past years. The results will help you decide how hot, cold, wet, or windy it might be!

Date:

Astronomy

Jan. 14, 2013 Rise Set
Actual Time 7:01 AM CST 5:20 PM CST
Civil Twilight 6:35 AM CST 5:46 PM CST
Nautical Twilight 6:05 AM CST 6:16 PM CST
Astronomical Twilight 5:36 AM CST 6:45 PM CST
Moon 8:50 AM CST (1/14) 8:49 PM CST (1/14)
Length of Visible Light 11h 11m
Length of Day
10h 18m
Waxing Crescent, 11% of the Moon is Illuminated
Jan 14
Waxing Crescent
Jan 18
First Quarter
Jan 26
Full
Feb 3
Last Quarter
Feb 10
New

Hourly Weather History & Observations

Time (CST) Temp. Windchill Dew Point Humidity Pressure Visibility Wind Dir Wind Speed Gust Speed Precip Events Conditions
12:15 AM 42.8 °F 38.0 °F 41.0 °F 93% 30.15 in 4.0 mi North 8.1 mph - 0.05 in Rain Rain
12:35 AM 42.8 °F 37.5 °F 41.0 °F 93% 30.16 in 9.0 mi North 9.2 mph - 0.05 in   Overcast
12:55 AM 42.8 °F 38.6 °F 41.0 °F 93% 30.14 in 10.0 mi NNW 6.9 mph - 0.05 in   Overcast
1:15 AM 42.8 °F 39.3 °F 41.0 °F 93% 30.16 in 10.0 mi North 5.8 mph - N/A Rain Light Rain
1:35 AM 42.8 °F 39.3 °F 39.2 °F 87% 30.17 in 2.0 mi NNW 5.8 mph - 0.07 in Rain Heavy Rain
1:55 AM 41.0 °F 38.0 °F 41.0 °F 100% 30.15 in 6.0 mi North 4.6 mph - 0.11 in Rain Light Rain
2:35 AM 41.0 °F 34.7 °F 41.0 °F 100% 30.12 in 10.0 mi North 10.4 mph - N/A   Mostly Cloudy
2:55 AM 41.0 °F 34.3 °F 41.0 °F 100% 30.14 in 10.0 mi North 11.5 mph - N/A   Overcast
3:15 AM 41.0 °F 35.8 °F 41.0 °F 100% 30.14 in 10.0 mi North 8.1 mph - N/A   Overcast
3:35 AM 41.0 °F 35.2 °F 41.0 °F 100% 30.13 in 10.0 mi North 9.2 mph - N/A   Overcast
3:55 AM 42.8 °F 37.0 °F 41.0 °F 93% 30.12 in 10.0 mi North 10.4 mph - N/A   Overcast
4:15 AM 42.8 °F 38.0 °F 41.0 °F 93% 30.12 in 10.0 mi North 8.1 mph - N/A   Overcast
4:35 AM 42.8 °F 37.5 °F 41.0 °F 93% 30.13 in 10.0 mi North 9.2 mph - N/A   Overcast
4:55 AM 42.8 °F 38.0 °F 41.0 °F 93% 30.11 in 10.0 mi North 8.1 mph - N/A   Overcast
5:35 AM 42.8 °F 38.6 °F 41.0 °F 93% 30.13 in 10.0 mi NNE 6.9 mph - N/A   Overcast
6:15 AM 41.0 °F 35.2 °F 41.0 °F 100% 30.12 in 2.0 mi North 9.2 mph - 0.07 in Rain Rain
6:35 AM 41.0 °F 38.0 °F 41.0 °F 100% 30.13 in 9.0 mi NNE 4.6 mph - 0.07 in   Light Drizzle
6:55 AM 41.0 °F 36.4 °F 41.0 °F 100% 30.13 in 5.0 mi NE 6.9 mph - 0.08 in Rain Light Rain
7:15 AM 41.0 °F 36.4 °F 39.2 °F 93% 30.14 in 9.0 mi NE 6.9 mph - N/A Thunderstorm Overcast
7:55 AM 41.0 °F 36.4 °F 39.2 °F 93% 30.13 in 1.2 mi NNE 6.9 mph - 0.03 in Rain Light Rain
8:15 AM 41.0 °F 38.0 °F 39.2 °F 93% 30.14 in 1.2 mi NNE 4.6 mph - 0.05 in Rain Rain
8:55 AM 41.0 °F 36.4 °F 39.2 °F 93% 30.14 in 2.0 mi NNE 6.9 mph - 0.18 in Thunderstorm Light Drizzle
9:15 AM 41.0 °F 36.4 °F 39.2 °F 93% 30.16 in 3.0 mi North 6.9 mph - 0.01 in Rain , Thunderstorm Thunderstorms and Rain
9:35 AM 41.0 °F 37.1 °F 41.0 °F 100% 30.17 in 1.2 mi North 5.8 mph - 0.03 in Rain Light Rain
9:55 AM 41.0 °F 36.4 °F 41.0 °F 100% 30.15 in 1.2 mi NNE 6.9 mph - 0.03 in   Mostly Cloudy
10:15 AM 41.0 °F 36.4 °F 41.0 °F 100% 30.15 in 0.8 mi North 6.9 mph - N/A Rain Light Rain
10:35 AM 41.0 °F 35.8 °F 41.0 °F 100% 30.16 in 1.0 mi NNW 8.1 mph - 0.01 in   Overcast
10:55 AM 41.0 °F 35.8 °F 41.0 °F 100% 30.17 in 0.8 mi North 8.1 mph - 0.02 in   Overcast
11:15 AM 41.0 °F 35.2 °F 41.0 °F 100% 30.16 in 1.0 mi NNW 9.2 mph - N/A Rain Rain
11:35 AM 41.0 °F 36.4 °F 39.2 °F 93% 30.16 in 1.2 mi NNW 6.9 mph - 0.03 in   Overcast
11:55 AM 39.2 °F 31.6 °F 39.2 °F 100% 30.16 in 1.5 mi NW 12.7 mph 17.3 mph 0.05 in Rain , Thunderstorm Rain
12:15 PM 37.4 °F 29.3 °F 37.4 °F 100% 30.16 in 1.5 mi NNW 12.7 mph 17.3 mph N/A Rain Light Rain
12:35 PM 37.4 °F 30.8 °F 37.4 °F 100% 30.15 in 2.0 mi NNW 9.2 mph 18.4 mph N/A   Light Drizzle
1:15 PM 37.4 °F 29.3 °F 35.6 °F 93% 30.16 in 1.2 mi NNW 12.7 mph 18.4 mph N/A Rain Light Rain
1:35 PM 35.6 °F 28.6 °F 35.6 °F 100% 30.17 in 1.2 mi NNW 9.2 mph 18.4 mph N/A Rain Rain
1:55 PM 35.6 °F 28.0 °F 35.6 °F 100% 30.17 in 1.8 mi North 10.4 mph - 0.05 in   Light Drizzle
2:15 PM 35.6 °F 27.1 °F 33.8 °F 93% 30.19 in 1.8 mi NNW 12.7 mph - N/A Rain Rain
2:35 PM 33.8 °F 24.8 °F 33.8 °F 100% 30.20 in 5.0 mi NNW 12.7 mph 23.0 mph N/A Rain Light Rain
2:55 PM 33.8 °F 24.8 °F 33.8 °F 100% 30.22 in 2.5 mi NNW 12.7 mph 18.4 mph 0.01 in Rain Light Rain
3:35 PM 33.8 °F 25.3 °F 33.8 °F 100% 30.20 in 2.0 mi North 11.5 mph - 0.03 in Rain Rain
3:55 PM 33.8 °F 27.7 °F 33.8 °F 100% 30.21 in 3.0 mi North 6.9 mph - 0.04 in   Mostly Cloudy
4:15 PM 33.8 °F 26.4 °F 33.8 °F 100% 30.21 in 1.2 mi North 9.2 mph - 0.06 in Rain Heavy Rain
4:35 PM 33.8 °F 27.0 °F 33.8 °F 100% 30.20 in 4.0 mi North 8.1 mph - 0.21 in   Mostly Cloudy
4:55 PM 33.8 °F 27.0 °F 33.8 °F 100% 30.20 in 10.0 mi North 8.1 mph - 0.21 in   Mostly Cloudy
5:15 PM 33.8 °F 28.6 °F 33.8 °F 100% 30.21 in 10.0 mi NNE 5.8 mph - N/A   Overcast
5:35 PM 33.8 °F 27.0 °F 33.8 °F 100% 30.21 in 10.0 mi North 8.1 mph - N/A   Overcast
5:55 PM 33.8 °F 26.4 °F 33.8 °F 100% 30.21 in 10.0 mi NNE 9.2 mph 16.1 mph N/A   Overcast
6:15 PM 33.8 °F 27.0 °F 33.8 °F 100% 30.20 in 10.0 mi North 8.1 mph - N/A   Overcast
6:35 PM 33.8 °F 27.0 °F 33.8 °F 100% 30.19 in 10.0 mi NNE 8.1 mph - N/A   Overcast
6:55 PM 35.6 °F 29.2 °F 33.8 °F 93% 30.19 in 10.0 mi NNE 8.1 mph - N/A   Overcast
7:15 PM 35.6 °F 28.6 °F 33.8 °F 93% 30.18 in 10.0 mi NNE 9.2 mph - N/A   Overcast
7:35 PM 35.6 °F 29.9 °F 33.8 °F 93% 30.18 in 10.0 mi NNE 6.9 mph - N/A   Overcast
7:55 PM 35.6 °F 29.9 °F 35.6 °F 100% 30.18 in 10.0 mi NNE 6.9 mph - N/A   Overcast
8:15 PM 35.6 °F 29.9 °F 35.6 °F 100% 30.17 in 10.0 mi NNE 6.9 mph - N/A   Overcast
8:35 PM 35.6 °F 30.7 °F 35.6 °F 100% 30.17 in 10.0 mi NNE 5.8 mph - N/A   Overcast
8:55 PM 35.6 °F 30.7 °F 35.6 °F 100% 30.16 in 10.0 mi NNE 5.8 mph - N/A   Light Drizzle
9:15 PM 35.6 °F 32.8 °F 35.6 °F 100% 30.16 in 10.0 mi NNE 3.5 mph - N/A   Overcast
9:35 PM 35.6 °F 31.7 °F 35.6 °F 100% 30.17 in 10.0 mi North 4.6 mph - N/A   Overcast
9:55 PM 37.4 °F 32.8 °F 35.6 °F 93% 30.16 in 9.0 mi North 5.8 mph - N/A   Light Drizzle
10:15 PM 37.4 °F 32.8 °F 35.6 °F 93% 30.14 in 10.0 mi NNE 5.8 mph - N/A   Overcast
10:35 PM 37.4 °F 31.4 °F 35.6 °F 93% 30.14 in 10.0 mi North 8.1 mph - N/A   Overcast
10:55 PM 37.4 °F 31.4 °F 35.6 °F 93% 30.14 in 10.0 mi North 8.1 mph - N/A   Overcast
11:15 PM 37.4 °F 31.4 °F 35.6 °F 93% 30.14 in 10.0 mi North 8.1 mph - N/A   Overcast
11:35 PM 37.4 °F 32.1 °F 37.4 °F 100% 30.14 in 7.0 mi North 6.9 mph - N/A   Overcast
11:55 PM 37.4 °F 32.1 °F 37.4 °F 100% 30.13 in 6.0 mi NNE 6.9 mph - N/A   Overcast